User: anonymous   Login
Location: Caltech
(34.1382°N, 118.1253°W)
Time: 15:55:00
(UTC-07:00)
Language:

SEDSat Delta rocket - Orbit

View from above orbital plane
View from above orbital plane
View from above satellite
View from above satellite

Ground track
Ground track

The orbit data is extracted from the following two-line orbital elements,

1 25510U 98061C   15109.82471218  .00000842  00000-0  13682-3 0  9993
2 25510 031.4374 345.8459 0330877 283.6803 149.4975 14.36506605863690
Epoch (UTC): 19 April 2015 19:47:35
Eccentricity: 0.0330877
inclination: 31.4374°
perigee height: 533 km
apogee height: 1006 km
right ascension of ascending node: 345.8459°
argument of perigee: 283.6803°
revolutions per day: 14.36506605
mean anomaly at epoch: 149.4975°
orbit number at epoch: 86369

The dashed part of the orbit path shows where the satellite is in the earth's shadow,  

DLR